• Processing (Info)

  • MPEC 2013-O03 : 2013 NC15

    The following Minor Planet Electronic Circular may be linked-to from your own Web pages, but must not otherwise be redistributed electronically.

    A form allowing access to any MPEC is at the bottom of this page.


    Read MPEC 2013-O02 Read MPEC 2013-O04


    M.P.E.C. 2013-O03                                Issued 2013 July 16, 02:22 UT
    
         The Minor Planet Electronic Circulars contain information on unusual
             minor planets and routine data on comets.  They are published
       on behalf of Commission 20 of the International Astronomical Union by the
              Minor Planet Center, Smithsonian Astrophysical Observatory,
                              Cambridge, MA 02138, U.S.A.
    
                 Prepared using the Tamkin Foundation Computer Network
    
                                  MPC@CFA.HARVARD.EDU
                URL https://www.minorplanetcenter.net/    ISSN 1523-6714
    
                                       2013 NC15
    
    Observations:
         K13N15C* C2013 07 13.46295 20 40 29.369-21 57 25.99         21.3 wLEO003F51
         K13N15C  C2013 07 13.47683 20 40 26.202-21 56 52.86         21.2 wLEO003F51
         K13N15C  C2013 07 13.49641 20 40 21.714-21 56 05.78         21.1 wLEO003F51
         K13N15C  C2013 07 13.51102 20 40 18.370-21 55 30.59         21.1 wLEO003F51
         K13N15C KC2013 07 14.25599620 37 35.43 -21 24 55.3          21.1 RqEO003W85
         K13N15C KC2013 07 14.26079020 37 34.32 -21 24 43.5          20.7 RqEO003W85
         K13N15C KC2013 07 14.26557720 37 33.21 -21 24 31.7          20.7 RqEO003W85
         K13N15C _C2013 07 14.44133520 36 54.987-21 17 40.89         20.3 RtEO003568
         K13N15C _C2013 07 14.44304520 36 54.576-21 17 36.57         20.2 RtEO003568
         K13N15C _C2013 07 14.44406320 36 54.340-21 17 34.07         20.0 RtEO003568
         K13N15C |C2013 07 15.13791 20 34 19.78 -20 48 12.9          20.8 VuEO003807
         K13N15C |C2013 07 15.14274 20 34 18.68 -20 48 00.8          21.0 VuEO003807
         K13N15C |C2013 07 15.14718 20 34 17.65 -20 47 49.7          21.0 VuEO003807
    
    Observer details:
    568 Mauna Kea.  Observers R. J. Wainscoat, M. Micheli, P. Forshay.  Measurer
        M. Micheli.  3.6-m Canada-France-Hawaii Telescope + CCD.
    807 Cerro Tololo.  Observers T. Linder, R. Holmes.  0.41-m f/11
        Ritchey-Chretien + CCD.
    F51 Pan-STARRS 1, Haleakala.  Observers N. Primak, A. Schultz, T. Goggia,
        K. Chambers.  Measurer PS1 Science Consortium.  1.8-m Ritchey-Chretien
        + CCD.
    W85 Cerro Tololo-LCOGT A.  Observer T. Lister.  1.0-m f/8 Ritchey-Chretien
        + CCD.
    
    Orbital elements:
    2013 NC15                                                Earth MOID = 0.0483 AU
    Epoch 2013 Apr. 18.0 TT = JDT 2456400.5                 MPC
    M 158.91499              (2000.0)            P               Q
    n   0.81097955     Peri.  143.79218     +0.12852564     -0.93980484
    a   1.1388402      Node   296.83693     +0.80593954     +0.28502437
    e   0.2070186      Incl.   20.78348     +0.57787769     -0.18848867
    P   1.22           H   22.1           G   0.15           U   7
    Residuals in seconds of arc
    130713 F51  0.0   0.0     130714 W85  0.0   0.0     130715 807  0.4-  0.0
    130713 F51  0.1+  0.0     130714 W85  0.0   0.0     130715 807  0.1+  0.0
    130713 F51  0.0   0.0     130714 568  0.1+  0.1-    130715 807  0.3+  0.0
    130713 F51  0.0   0.0     130714 568  0.0   0.1+
    130714 W85  0.1-  0.0     130714 568  0.0   0.0
    
    Ephemeris:
    2013 NC15                a,e,i = 1.14, 0.21, 21                  q = 0.9031
    Date    TT    R. A. (2000) Decl.     Delta      r     Elong.  Phase     V
    2013 06 16    21 37 16.2 -33 33 41   0.4763  1.3570   127.0    36.7    22.6
    ...
    2013 07 01    21 17 00.7 -28 38 43   0.3730  1.3376   144.4    26.3    21.8
    ...
    2013 07 09    20 55 36.4 -24 42 38   0.3287  1.3244   156.3    17.9    21.2
    ...
    2013 07 15    20 34 49.9 -20 54 09   0.3032  1.3132   166.6    10.4    20.8
    2013 07 16    20 31 02.8 -20 11 33   0.2997  1.3113   168.3     9.0    20.7
    2013 07 17    20 27 11.3 -19 27 43   0.2964  1.3093   170.0     7.7    20.6
    ...
    2013 07 23    20 02 55.1 -14 41 51   0.2819  1.2967   174.4     4.4    20.3
    ...
    2013 07 31    19 30 08.4 -07 47 25   0.2767  1.2784   159.9    15.9    20.7
    ...
    2013 08 15    18 40 53.7 +03 40 02   0.3048  1.2396   132.6    37.0    21.5
    
    A. U. Tomatic                (C) Copyright 2013 MPC           M.P.E.C. 2013-O03
    

    Read MPEC 2013-O02 Read MPEC 2013-O04


    MPEC number:

    Enter an MPEC number in one of the following forms:

    • 1997-B01 (the full form)
    • J97B01 (the packed version of the full form)
    • B01 (the abbreviated form)